Galena, AK

1:25 PM AKDT on June 26, 2017 (GMT -0800)
Pitka

Weather History for PAGA - February, 2013

Change the Weather History Date:

Friday, February 15, 2013

  Actual Average Record
Temperature  
Mean Temperature -4 °F -  
Max Temperature 6 °F -1 °F 37 °F (2006)
Min Temperature -14 °F -17 °F -48 °F (1976)
Degree Days  
Heating Degree Days 69    
Moisture  
Dew Point -8 °F    
Average Humidity 78    
Maximum Humidity 85    
Minimum Humidity 65    
Precipitation  
Precipitation 0.00 in - - ()
Sea Level Pressure  
Sea Level Pressure 29.90 in    
Wind  
Wind Speed 10 mph (South)    
Max Wind Speed 17 mph    
Max Gust Speed 23 mph    
Visibility 7 miles    
Events Snow    
Averages and records for this station are not official NWS values.
T = Trace of Precipitation, MM = Missing Value Source: NWS Daily Summary

Daily Weather History Graph

Daily Weather History Graph

Search for Another Location

Airport or City:

Trip Planner

Search our weather history database for the weather conditions in past years. The results will help you decide how hot, cold, wet, or windy it might be!

Date:

Astronomy

Feb. 15, 2013 Rise Set
Actual Time 9:24 AM AKST 6:00 PM AKST
Civil Twilight 8:31 AM AKST 6:53 PM AKST
Nautical Twilight 7:34 AM AKST 7:50 PM AKST
Astronomical Twilight 6:38 AM AKST 8:46 PM AKST
Moon 9:39 AM AKST (2/15) 1:33 AM AKST (2/15)
Length of Visible Light 10h 21m
Length of Day
8h 36m
Waxing Crescent, 31% of the Moon is Illuminated
Feb 15
Waxing Crescent
Feb 17
First Quarter
Feb 25
Full
Mar 4
Last Quarter
Mar 11
New

Hourly Weather History & Observations

Time (AKST) Temp. Windchill Dew Point Humidity Pressure Visibility Wind Dir Wind Speed Gust Speed Precip Events Conditions
12:02 AM 6.8 °F -10.0 °F 3.2 °F 85% 29.58 in 2.0 mi WSW 13.8 mph - 0.00 in Snow Light Snow
12:05 AM 6.8 °F -11.8 °F 3.2 °F 85% 29.59 in 1.8 mi WSW 17.3 mph 21.9 mph 0.00 in Snow Light Snow
12:26 AM 6.8 °F -9.3 °F 1.4 °F 79% 29.60 in 2.5 mi WSW 12.7 mph - 0.00 in Snow Light Snow
12:30 AM 6.8 °F -10.7 °F 1.4 °F 79% 29.61 in 4.0 mi WSW 15.0 mph - 0.00 in Snow Light Snow
12:34 AM 6.8 °F -10.7 °F 1.4 °F 79% 29.61 in 3.0 mi WSW 15.0 mph - 0.00 in Snow Light Snow
12:39 AM 6.8 °F -10.0 °F 1.4 °F 79% 29.61 in 2.0 mi WSW 13.8 mph - 0.00 in Snow Light Snow
12:45 AM 6.8 °F -11.8 °F 1.4 °F 79% 29.61 in 1.8 mi WSW 17.3 mph 23.0 mph 0.00 in Snow Light Snow
12:58 AM 5.0 °F -11.6 °F 1.0 °F 84% 29.65 in 2.5 mi WSW 12.7 mph - 0.00 in Snow Light Snow
1:03 AM 5.0 °F -11.6 °F 1.4 °F 85% 29.63 in 3.0 mi WSW 12.7 mph - 0.00 in Snow Light Snow
1:11 AM 5.0 °F -11.6 °F 1.4 °F 85% 29.63 in 3.0 mi WSW 12.7 mph - 0.00 in Snow Light Snow
1:58 AM 3.9 °F -13.0 °F -2.0 °F 76% 29.68 in 9.0 mi WSW 12.7 mph - 0.00 in Snow Light Snow
2:21 AM 3.2 °F -14.6 °F -2.2 °F 78% 29.67 in 9.0 mi WSW 13.8 mph - 0.00 in Snow Light Snow
2:44 AM 1.4 °F -16.9 °F -4.0 °F 78% 29.69 in 10.0 mi WSW 13.8 mph - 0.00 in   Scattered Clouds
2:58 AM 1.0 °F -17.3 °F -5.1 °F 75% 29.73 in 10.0 mi WSW 13.8 mph - 0.00 in   Partly Cloudy
3:58 AM -2.0 °F -15.4 °F -8.0 °F 76% 29.77 in 10.0 mi SW 6.9 mph - N/A   Clear
4:58 AM -5.1 °F -19.1 °F -11.0 °F 76% 29.80 in 10.0 mi SW 6.9 mph - N/A   Mostly Cloudy
5:58 AM -5.1 °F -15.8 °F -11.0 °F 76% 29.84 in 10.0 mi South 4.6 mph - N/A   Mostly Cloudy
6:58 AM -8.0 °F -23.9 °F -14.1 °F 75% 29.88 in 10.0 mi SSW 8.1 mph - N/A   Clear
7:58 AM -11.9 °F -25.7 °F -17.0 °F 78% 29.90 in 10.0 mi East 5.8 mph - 0.00 in   Clear
8:58 AM -14.1 °F -26.3 °F -18.9 °F 79% 29.93 in 10.0 mi ESE 4.6 mph - N/A   Clear
9:58 AM -11.9 °F -23.8 °F -18.0 °F 74% 29.97 in 10.0 mi SE 4.6 mph - N/A   Clear
10:58 AM -9.9 °F -24.9 °F -17.0 °F 71% 29.99 in 10.0 mi SE 6.9 mph - N/A   Overcast
11:58 AM -7.1 °F -22.8 °F -14.1 °F 72% 29.99 in 10.0 mi SE 8.1 mph - 0.00 in   Overcast
12:58 PM -6.0 °F -20.1 °F -14.1 °F 68% 30.02 in 10.0 mi SE 6.9 mph - N/A   Overcast
1:58 PM -4.0 °F -12.4 °F -13.0 °F 65% 30.03 in 10.0 mi Variable 3.5 mph - N/A   Overcast
2:58 PM -2.9 °F -20.8 °F -11.9 °F 65% 30.04 in 10.0 mi SSE 11.5 mph - 0.00 in Snow Light Snow
3:58 PM -2.9 °F -19.8 °F -11.0 °F 68% 30.05 in 9.0 mi SSE 10.4 mph - 0.00 in Snow Light Snow
4:58 PM -2.9 °F -17.7 °F -11.0 °F 68% 30.06 in 9.0 mi SE 8.1 mph - 0.00 in Snow Light Snow
5:58 PM -2.9 °F -11.2 °F -11.0 °F 68% 30.06 in 10.0 mi ESE 3.5 mph - 0.00 in   Overcast
6:35 PM -4.0 °F -16.3 °F -11.2 °F 71% 30.04 in 10.0 mi SE 5.8 mph - N/A   Overcast
6:58 PM -5.1 °F -17.6 °F -11.0 °F 76% 30.07 in 10.0 mi SE 5.8 mph - N/A   Overcast
7:26 PM -5.8 °F -14.5 °F -11.2 °F 77% 30.06 in 10.0 mi East 3.5 mph - N/A   Overcast
7:37 PM -7.6 °F - -11.2 °F 84% 30.06 in 7.0 mi Calm Calm - 0.00 in Snow Light Snow
7:46 PM -7.6 °F -18.8 °F -11.2 °F 84% 30.05 in 8.0 mi SSE 4.6 mph - 0.00 in Snow Light Snow
7:58 PM -7.1 °F -19.9 °F -11.0 °F 83% 30.08 in 9.0 mi SE 5.8 mph - 0.00 in   Overcast
8:44 PM -5.8 °F -18.4 °F -9.4 °F 84% 30.06 in 10.0 mi SE 5.8 mph - 0.00 in   Overcast
8:53 PM -5.8 °F -19.9 °F -9.4 °F 84% 30.05 in 10.0 mi SE 6.9 mph - 0.00 in   Mostly Cloudy
8:58 PM -6.0 °F -20.1 °F -9.9 °F 83% 30.08 in 10.0 mi SE 6.9 mph - 0.00 in   Mostly Cloudy
9:58 PM -6.0 °F - -9.9 °F 83% 30.08 in 7.0 mi Calm Calm - 0.00 in Snow Light Snow
10:56 PM -5.8 °F - -9.4 °F 84% 30.06 in 2.5 mi Calm Calm - 0.00 in Snow Light Snow
10:58 PM -5.1 °F - -9.0 °F 83% 30.09 in 2.0 mi Calm Calm - 0.00 in Snow Light Snow
11:13 PM -5.8 °F -14.5 °F -9.4 °F 84% 30.07 in 3.0 mi East 3.5 mph - 0.00 in Snow Light Snow
11:20 PM -5.8 °F -14.5 °F -9.4 °F 84% 30.07 in 2.5 mi East 3.5 mph - 0.00 in Snow Light Snow
11:52 PM -5.8 °F - -9.4 °F 84% 30.07 in 2.5 mi Calm Calm - 0.00 in Snow Light Snow
11:57 PM -5.1 °F - -9.0 °F 83% 30.10 in 3.0 mi Calm Calm - 0.00 in Snow Light Snow